Home > Weather > Halmstad > Past weeks

Flag for Sweden Past Weather in Halmstad, Sweden — Yesterday and Last 2 Weeks

Now
46 °F

Cool.


Feels Like: 45 °F
Forecast: 51 / 69 °F
Wind: 3 mph from East

Location: Halmstad Swedish Air Force Base

Current Time: May 27, 2016 at 4:24:10 AM

Latest Report: May 27, 2016 at 3:50 AM


Visibility: N/A

Pressure: 30.04 "Hg

Humidity: 76%

Dew Point: 39 °F

Location of HalmstadLocation

Past Weather in Halmstad — Graph

°F

Halmstad Temperature Yesterday

Maximum temperature yesterday: 63 °F (at 12:20 PM)
Minimum temperature yesterday: 50 °F (at 4:50 AM)
Average temperature yesterday: 57 °F

High & Low Weather Summary for the Past Weeks

 TemperatureHumidityPressure
High81 °F (May 24, 1:20 PM)94% (May 13, 11:50 PM)30.07 "Hg (May 13, 11:50 PM)
Low41 °F (May 15, 5:20 AM)24% (May 12, 11:50 AM)29.53 "Hg (May 13, 6:20 PM)
Average56 °F69%29.82 "Hg
* Reported May 12 3:20 AM — May 27 3:20 AM, Halmstad, Weather by CustomWeather, © 2016

Note: Actual official high and low records may vary slightly from our data, if they occured in-between our weather recording intervals... More about our weather records

Advertising

Halmstad Weather History for the Previous 24 Hours

Scroll right to see more
 ConditionsComfort  
Time TempWeatherWind HumidityBarometerVisibility
3:20 AM
Fri, May 27
46 °FCool.5 mph82%30.04 "HgN/A
2:50 AM46 °FCool.3 mph82%30.04 "HgN/A
2:20 AM46 °FCool.2 mph82%30.04 "HgN/A
1:50 AM46 °FCool.No wind82%30.04 "HgN/A
1:20 AM46 °FCool.1 mph82%30.04 "HgN/A
12:50 AM50 °FCool.2 mph76%30.04 "HgN/A
12:20 AM46 °FCool.3 mph76%30.04 "HgN/A
11:50 PM
Thu, May 26
52 °FCool.3 mph72%30.04 "HgN/A
11:20 PM50 °FCool.3 mph82%30.04 "HgN/A
10:50 PM52 °FCool.2 mph77%30.04 "HgN/A
10:20 PM52 °FSunny.2 mph77%30.04 "Hg10 mi
9:50 PM52 °FSunny.2 mph77%30.04 "Hg10 mi
9:20 PM54 °FSunny.3 mph67%30.04 "Hg10 mi
8:50 PM55 °FSunny.6 mph63%30.04 "Hg10 mi
8:20 PM57 °FSunny.7 mph59%30.04 "Hg10 mi
7:50 PM57 °FSunny.8 mph51%30.04 "Hg10 mi
7:20 PM59 °FSunny.9 mph48%30.04 "Hg10 mi
6:50 PM59 °FSunny.10 mph45%30.04 "Hg10 mi
6:20 PM61 °FSunny.13 mph42%30.04 "Hg10 mi
5:50 PM61 °FSunny.14 mph42%30.04 "Hg10 mi
5:20 PM61 °FSunny.15 mph52%30.04 "Hg10 mi
4:50 PM61 °FSunny.15 mph48%30.04 "Hg10 mi
4:20 PM61 °FSunny.15 mph52%30.04 "Hg10 mi
3:50 PM61 °FSunny.16 mph48%30.04 "Hg10 mi
3:20 PM63 °FSunny.15 mph45%30.04 "Hg10 mi
2:50 PM63 °FSunny.15 mph42%30.04 "Hg10 mi
2:20 PM61 °FSunny.15 mph52%30.04 "Hg10 mi
1:50 PM63 °FSunny.14 mph52%30.04 "Hg10 mi
1:20 PM63 °FSunny.14 mph56%30.04 "Hg10 mi
12:50 PM61 °FPassing clouds.15 mph59%30.04 "HgN/A
12:20 PM63 °FScattered clouds.12 mph56%30.04 "HgN/A
11:50 AM61 °FPassing clouds.12 mph63%30.04 "HgN/A
11:20 AM61 °FSunny.12 mph59%30.04 "Hg10 mi
10:50 AM61 °FPassing clouds.10 mph59%30.04 "HgN/A
10:20 AM61 °FPassing clouds.5 mph55%30.04 "HgN/A
9:50 AM61 °FPassing clouds.5 mph55%30.07 "HgN/A
9:20 AM59 °FSunny.2 mph55%30.07 "Hg10 mi
8:50 AM57 °FSunny.3 mph63%30.07 "Hg10 mi
8:20 AM55 °FPassing clouds.5 mph67%30.07 "HgN/A
7:50 AM55 °FSunny.5 mph67%30.07 "Hg10 mi
7:20 AM52 °FSunny.3 mph77%30.07 "Hg10 mi
6:50 AM52 °FSunny.3 mph77%30.07 "Hg10 mi
6:20 AM50 °FSunny.5 mph76%30.07 "Hg10 mi
5:50 AM50 °FPassing clouds.5 mph76%30.07 "HgN/A
5:20 AM50 °FPassing clouds.5 mph76%30.04 "HgN/A
4:50 AM50 °FPassing clouds.3 mph76%30.04 "HgN/A
4:20 AM52 °FPassing clouds.7 mph72%30.04 "HgN/A
Weather by CustomWeather, © 2016

See weather overviewHow to use our weather pages